Regional Weather Roundup
Issued by NWS

Home | Current Version | Previous Version | Graphics & Text | Print | Product List | Glossary On
Versions: 1 2 3 4 5 6 7 8 9 10 11 12 13 14 15 16 17 18 19 20 21 22 23 24 25 26 27 28 29 30 31 32 33 34 35 36 37 38 39 40 41 42 43 44 45 46 47 48 49 50
000
ASUS43 KBIS 221259
RWRND

NORTH DAKOTA REGIONAL WEATHER ROUNDUP
NATIONAL WEATHER SERVICE BISMARCK ND
700 AM CST MON DEC 22 2014

NOTE: "FAIR" INDICATES FEW OR NO CLOUDS BELOW 12,000 FEET WITH NO
SIGNIFICANT WEATHER AND/OR OBSTRUCTIONS TO VISIBILITY.


NDZ001>003-009>011-017-221400-
NORTHWEST NORTH DAKOTA

CITY           SKY/WX    TMP DP  RH WIND       PRES   REMARKS
WILLISTON      CLOUDY    28  24  85 NW16      29.51R WCI  16
MINOT          CLOUDY    28  26  92 N5        29.47R FOG
MINOT AFB      FRZ DRZL  28  28 100 E6        29.48R FOG
$$

NDZ018>021-031>035-040>046-221400-
SOUTHWEST NORTH DAKOTA

CITY           SKY/WX    TMP DP  RH WIND       PRES   REMARKS
BISMARCK       FOG       28  28 100 E3        29.46R VSB 1/4
DICKINSON      LGT SNOW  31  27  85 NW21      29.45R FOG     WCI  18
GARRISON         N/A     28  27  96 E3        29.45R
HETTINGER ARPT CLOUDY    33  31  92 NW17G28   29.47R
$$

NDZ004>008-012>016-024-026-027-054-221400-
NORTHEAST NORTH DAKOTA

CITY           SKY/WX    TMP DP  RH WIND       PRES   REMARKS
GRAND FORKS    DRIZZLE   34  34 100 E8        29.53R FOG
DEVILS LAKE    CLOUDY    30  25  80 E6        29.48R
$$

NDZ022-023-025-028>030-036>039-047>053-221400-
SOUTHEAST NORTH DAKOTA

CITY           SKY/WX    TMP DP  RH WIND       PRES   REMARKS
FARGO          CLOUDY    38  36  92 SE12      29.49S FOG
JAMESTOWN      FOG       32  32 100 NE7       29.44S VSB 1/2
$$




USA.gov is the U.S. government's official web portal to all federal, state and local government web resources and services.